| time (UTC) | temp C | wind direction | speed KPH | gust KPH | rain 1hr cm | rain 24hr cm | rain mn cm | humidity % | barometer mb |
| 20260508204517 | 17 | 280 | 3.2 | 11.3 | 0.00 | 0.00 | 0.00 | 37 | 1019.1 |
| 20260508203016 | 18 | 132 | 6.4 | 17.7 | 0.00 | 0.00 | 0.00 | 35 | 1019.3 |
| 20260508201511 | 17 | 110 | 4.8 | 12.9 | 0.00 | 0.00 | 0.00 | 37 | 1019.4 |
| 20260508200009 | 17 | 107 | 1.6 | 9.7 | 0.00 | 0.00 | 0.00 | 38 | 1019.4 |
| 20260508194507 | 17 | 114 | 8.0 | 16.1 | 0.00 | 0.00 | 0.00 | 39 | 1019.4 |
| 20260508193007 | 17 | 136 | 6.4 | 16.1 | 0.00 | 0.00 | 0.00 | 39 | 1019.5 |
| 20260508191505 | 16 | 105 | 4.8 | 17.7 | 0.00 | 0.00 | 0.00 | 38 | 1019.6 |
| 20260508190014 | 17 | 126 | 4.8 | 14.5 | 0.00 | 0.00 | 0.00 | 39 | 1019.5 |
| 20260508184512 | 16 | 150 | 4.8 | 12.9 | 0.00 | 0.00 | 0.00 | 38 | 1019.8 |
| 20260508183007 | 17 | 123 | 1.6 | 8.0 | 0.00 | 0.00 | 0.00 | 39 | 1020.0 |
| 20260508181501 | 15 | 224 | 3.2 | 11.3 | 0.00 | 0.00 | 0.00 | 41 | 1020.1 |
| 20260508180114 | 16 | 132 | 0.0 | 8.0 | 0.00 | 0.00 | 0.00 | 42 | 1020.4 |
| 20260508174612 | 15 | 127 | 1.6 | 4.8 | 0.00 | 0.00 | 0.00 | 44 | 1020.5 |
| 20260508173058 | 14 | 125 | 1.6 | 8.0 | 0.00 | 0.00 | 0.00 | 46 | 1020.6 |
| 20260508171555 | 14 | 313 | 0.0 | 4.8 | 0.00 | 0.00 | 0.00 | 50 | 1020.7 |
| 20260508164554 | 13 | 341 | 3.2 | 8.0 | 0.00 | 0.00 | 0.00 | 53 | 1020.7 |
| 20260508163051 | 12 | 115 | 1.6 | 6.4 | 0.00 | 0.00 | 0.00 | 58 | 1020.8 |
| 20260508161548 | 12 | 112 | 0.0 | 9.7 | 0.00 | 0.00 | 0.00 | 59 | 1020.9 |
| 20260508160047 | 12 | 215 | 3.2 | 11.3 | 0.00 | 0.00 | 0.00 | 59 | 1020.8 |
| 20260508154547 | 11 | 120 | 1.6 | 6.4 | 0.00 | 0.03 | 0.00 | 63 | 1020.8 |
| 20260508153054 | 9 | 19 | 3.2 | 9.7 | 0.00 | 0.03 | 0.00 | 64 | 1020.9 |
| 20260508151546 | 9 | 121 | 3.2 | 11.3 | 0.00 | 0.03 | 0.00 | 65 | 1021.0 |
| 20260508150044 | 8 | 39 | 4.8 | 9.7 | 0.00 | 0.03 | 0.00 | 69 | 1021.4 |
| 20260508144550 | 7 | 108 | 6.4 | 12.9 | 0.00 | 0.10 | 0.00 | 72 | 1021.3 |
| 20260508143047 | 7 | 298 | 6.4 | 16.1 | 0.00 | 0.10 | 0.00 | 73 | 1021.4 |
| 20260508141553 | 7 | 36 | 3.2 | 17.7 | 0.00 | 0.10 | 0.00 | 76 | 1021.6 |
| 20260508140041 | 6 | 132 | 3.2 | 20.9 | 0.00 | 0.10 | 0.00 | 76 | 1021.6 |
| 20260508134538 | 7 | 24 | 6.4 | 12.9 | 0.00 | 0.13 | 0.00 | 70 | 1021.5 |
| 20260508133034 | 8 | 93 | 0.0 | 6.4 | 0.00 | 0.13 | 0.00 | 59 | 1020.8 |
| 20260508131531 | 11 | 36 | 4.8 | 16.1 | 0.00 | 0.13 | 0.00 | 40 | 1020.2 |
| 20260508130037 | 11 | 319 | 4.8 | 9.7 | 0.00 | 0.13 | 0.00 | 42 | 1020.1 |
| 20260508124535 | 10 | 19 | 1.6 | 8.0 | 0.00 | 0.13 | 0.00 | 44 | 1020.1 |
| 20260508123030 | 9 | 269 | 1.6 | 4.8 | 0.00 | 0.13 | 0.00 | 48 | 1020.2 |
| 20260508121530 | 8 | 277 | 1.6 | 4.8 | 0.00 | 0.13 | 0.00 | 49 | 1020.1 |
| 20260508120027 | 8 | 279 | 0.0 | 3.2 | 0.00 | 0.13 | 0.00 | 49 | 1020.0 |
| 20260508114527 | 8 | 290 | 1.6 | 6.4 | 0.00 | 0.13 | 0.00 | 49 | 1019.8 |
| 20260508113026 | 8 | 320 | 1.6 | 6.4 | 0.00 | 0.13 | 0.00 | 48 | 1019.8 |
| 20260508111525 | 9 | 307 | 0.0 | 6.4 | 0.00 | 0.13 | 0.00 | 47 | 1019.9 |
| 20260508110027 | 9 | 313 | 3.2 | 11.3 | 0.00 | 0.13 | 0.00 | 47 | 1019.9 |
| 20260508104529 | 8 | 302 | 1.6 | 6.4 | 0.00 | 0.13 | 0.00 | 49 | 1019.8 |
| 20260508103027 | 8 | 281 | 0.0 | 6.4 | 0.00 | 0.13 | 0.00 | 49 | 1019.9 |
| 20260508101519 | 9 | 275 | 0.0 | 3.2 | 0.00 | 0.13 | 0.00 | 46 | 1020.0 |
| 20260508100019 | 10 | 276 | 1.6 | 9.7 | 0.00 | 0.13 | 0.00 | 45 | 1020.2 |
| 20260508094522 | 10 | 267 | 1.6 | 12.9 | 0.00 | 0.13 | 0.00 | 45 | 1020.2 |
| 20260508093026 | 10 | 275 | 0.0 | 3.2 | 0.00 | 0.13 | 0.00 | 45 | 1020.3 |
| 20260508091518 | 10 | 276 | 3.2 | 9.7 | 0.00 | 0.13 | 0.00 | 44 | 1020.3 |
| 20260508090013 | 10 | 281 | 3.2 | 8.0 | 0.00 | 0.13 | 0.00 | 44 | 1020.6 |
| 20260508084513 | 10 | 274 | 3.2 | 8.0 | 0.00 | 0.13 | 0.00 | 45 | 1021.0 |
| 20260508083009 | 10 | 267 | 0.0 | 3.2 | 0.00 | 0.13 | 0.00 | 43 | 1021.2 |
| 20260508081510 | 10 | 252 | 0.0 | 3.2 | 0.00 | 0.13 | 0.00 | 42 | 1021.3 |
| 20260508080004 | 11 | 313 | 1.6 | 11.3 | 0.00 | 0.13 | 0.00 | 40 | 1021.6 |
| 20260508074502 | 11 | 265 | 4.8 | 16.1 | 0.00 | 0.13 | 0.00 | 39 | 1021.6 |
| 20260508073101 | 11 | 279 | 4.8 | 16.1 | 0.00 | 0.13 | 0.00 | 38 | 1021.8 |
| 20260508071558 | 12 | 268 | 6.4 | 20.9 | 0.00 | 0.13 | 0.00 | 38 | 1021.9 |
| 20260508070055 | 12 | 264 | 4.8 | 20.9 | 0.00 | 0.13 | 0.00 | 38 | 1022.2 |
| 20260508064555 | 12 | 300 | 8.0 | 25.7 | 0.00 | 0.13 | 0.13 | 37 | 1022.1 |
| 20260508063104 | 12 | 284 | 8.0 | 25.7 | 0.00 | 0.13 | 0.13 | 37 | 1022.1 |
| 20260508061553 | 12 | 277 | 8.0 | 24.1 | 0.00 | 0.13 | 0.13 | 37 | 1022.3 |
| 20260508060053 | 12 | 284 | 11.3 | 20.9 | 0.00 | 0.13 | 0.13 | 38 | 1022.4 |
| 20260508054553 | 12 | 284 | 9.7 | 20.9 | 0.00 | 0.13 | 0.13 | 37 | 1022.6 |
| 20260508053103 | 12 | 275 | 11.3 | 20.9 | 0.00 | 0.13 | 0.13 | 37 | 1022.8 |
| 20260508051550 | 12 | 294 | 8.0 | 19.3 | 0.00 | 0.13 | 0.13 | 36 | 1022.8 |
| 20260508050049 | 12 | 272 | 4.8 | 17.7 | 0.00 | 0.13 | 0.13 | 36 | 1023.0 |
| 20260508044548 | 13 | 313 | 6.4 | 16.1 | 0.00 | 0.13 | 0.13 | 35 | 1023.1 |
| 20260508043057 | 13 | 311 | 4.8 | 20.9 | 0.00 | 0.13 | 0.13 | 34 | 1023.3 |
| 20260508041552 | 13 | 291 | 8.0 | 17.7 | 0.00 | 0.13 | 0.13 | 34 | 1023.5 |
| 20260508040046 | 13 | 299 | 8.0 | 19.3 | 0.00 | 0.13 | 0.13 | 33 | 1023.8 |
| 20260508034546 | 13 | 277 | 8.0 | 24.1 | 0.00 | 0.13 | 0.13 | 31 | 1023.8 |
| 20260508033046 | 13 | 314 | 3.2 | 14.5 | 0.00 | 0.13 | 0.13 | 31 | 1023.8 |
| 20260508031545 | 13 | 290 | 4.8 | 8.0 | 0.00 | 0.13 | 0.13 | 32 | 1023.7 |
| 20260508030046 | 12 | 276 | 1.6 | 4.8 | 0.00 | 0.13 | 0.13 | 34 | 1023.5 |
| 20260508024547 | 13 | 276 | 1.6 | 4.8 | 0.00 | 0.13 | 0.13 | 34 | 1023.5 |
| 20260508023044 | 12 | 271 | 1.6 | 6.4 | 0.00 | 0.13 | 0.13 | 35 | 1023.5 |
| 20260508021549 | 13 | 271 | 1.6 | 4.8 | 0.00 | 0.13 | 0.13 | 34 | 1023.4 |
| 20260508020048 | 13 | 279 | 0.0 | 3.2 | 0.00 | 0.13 | 0.13 | 31 | 1023.4 |
| 20260508014542 | 14 | 268 | 1.6 | 4.8 | 0.00 | 0.13 | 0.13 | 30 | 1023.4 |
| 20260508013052 | 15 | 284 | 0.0 | 1.6 | 0.00 | 0.13 | 0.13 | 30 | 1023.4 |
| 20260508011544 | 15 | 272 | 0.0 | 6.4 | 0.00 | 0.13 | 0.13 | 30 | 1023.5 |
| 20260508010040 | 15 | 283 | 1.6 | 8.0 | 0.00 | 0.13 | 0.13 | 28 | 1023.5 |
| 20260508004540 | 16 | 277 | 1.6 | 4.8 | 0.00 | 0.15 | 0.13 | 28 | 1023.4 |
| 20260508003040 | 15 | 265 | 1.6 | 11.3 | 0.00 | 0.15 | 0.13 | 28 | 1023.5 |
| 20260508001605 | 16 | 300 | 3.2 | 12.9 | 0.00 | 0.15 | 0.13 | 26 | 1023.6 |
| 20260508000038 | 16 | 286 | 4.8 | 11.3 | 0.00 | 0.15 | 0.13 | 26 | 1024.0 |
| 20260507234538 | 16 | 281 | 1.6 | 9.7 | 0.00 | 0.15 | 0.13 | 26 | 1023.9 |
| 20260507233037 | 17 | 327 | 1.6 | 11.3 | 0.00 | 0.15 | 0.13 | 25 | 1024.1 |
| 20260507231538 | 17 | 261 | 4.8 | 11.3 | 0.00 | 0.15 | 0.13 | 26 | 1024.1 |
| 20260507230035 | 17 | 294 | 6.4 | 14.5 | 0.00 | 0.15 | 0.13 | 24 | 1024.9 |
| 20260507224542 | 18 | 292 | 1.6 | 20.9 | 0.00 | 0.15 | 0.13 | 26 | 1024.8 |
| 20260507223034 | 16 | 271 | 6.4 | 25.7 | 0.00 | 0.15 | 0.13 | 26 | 1025.1 |
| 20260507221534 | 17 | 281 | 8.0 | 20.9 | 0.00 | 0.15 | 0.13 | 26 | 1025.2 |
| 20260507220041 | 17 | 269 | 9.7 | 19.3 | 0.00 | 0.15 | 0.13 | 26 | 1025.6 |
| 20260507214536 | 17 | 19 | 8.0 | 27.4 | 0.00 | 0.15 | 0.13 | 25 | 1025.7 |
| 20260507213033 | 17 | 277 | 3.2 | 9.7 | 0.00 | 0.15 | 0.13 | 28 | 1026.0 |
| 20260507211534 | 16 | 287 | 6.4 | 29.0 | 0.00 | 0.15 | 0.13 | 28 | 1026.2 |
| 20260507210029 | 17 | 338 | 14.5 | 25.7 | 0.00 | 0.15 | 0.13 | 26 | 1026.8 |